Time,TemperatureF,DewpointF,PressureIn,WindDirection,WindDirectionDegrees,WindSpeedMPH,WindSpeedGustMPH,Humidity,HourlyPrecipIn,Conditions,Clouds,dailyrainin,SoftwareType,DateUTC
2013-04-09 00:05:00,42.4,34.0,30.04,NW,322,0.0,1.0,72,0.00,,,0.00,weatherlink.com 1.10,2013-04-09 04:05:00,
2013-04-09 00:20:00,42.6,35.0,30.03,NW,308,0.0,2.0,73,0.00,,,0.00,weatherlink.com 1.10,2013-04-09 04:20:00,
2013-04-09 00:35:00,42.5,35.0,30.03,NW,308,1.0,3.0,76,0.00,,,0.00,weatherlink.com 1.10,2013-04-09 04:35:00,
2013-04-09 00:51:00,42.7,36.0,30.02,NW,314,0.0,2.0,77,0.00,,,0.00,weatherlink.com 1.10,2013-04-09 04:51:00,
2013-04-09 01:05:00,43.2,36.0,30.03,NW,304,0.0,2.0,77,0.00,,,0.00,weatherlink.com 1.10,2013-04-09 05:05:00,
2013-04-09 01:20:00,43.7,37.0,30.01,WNW,294,0.0,2.0,78,0.00,,,0.00,weatherlink.com 1.10,2013-04-09 05:20:00,
2013-04-09 01:36:00,44.6,38.0,30.00,NW,311,2.0,3.0,79,0.00,,,0.00,weatherlink.com 1.10,2013-04-09 05:36:00,
2013-04-09 01:51:00,45.1,39.0,30.00,WNW,303,1.0,2.0,79,0.00,,,0.00,weatherlink.com 1.10,2013-04-09 05:51:00,
2013-04-09 02:06:00,44.7,39.0,29.99,WSW,252,1.0,2.0,81,0.01,,,0.01,weatherlink.com 1.10,2013-04-09 06:06:00,
2013-04-09 02:21:00,45.0,40.0,30.00,West,281,0.0,4.0,83,0.02,,,0.02,weatherlink.com 1.10,2013-04-09 06:21:00,
2013-04-09 02:36:00,44.7,41.0,30.00,East,79,1.0,2.0,85,0.05,,,0.05,weatherlink.com 1.10,2013-04-09 06:36:00,
2013-04-09 02:51:00,44.4,41.0,29.98,ESE,117,1.0,4.0,86,0.06,,,0.06,weatherlink.com 1.10,2013-04-09 06:51:00,
2013-04-09 03:06:00,44.1,41.0,29.97,SE,136,1.0,3.0,88,0.06,,,0.07,weatherlink.com 1.10,2013-04-09 07:06:00,
2013-04-09 03:21:00,44.1,41.0,29.97,East,100,0.0,4.0,88,0.06,,,0.08,weatherlink.com 1.10,2013-04-09 07:21:00,
2013-04-09 04:06:00,43.9,42.0,29.94,WSW,239,6.0,7.0,91,0.06,,,0.13,weatherlink.com 1.10,2013-04-09 08:06:00,
2013-04-09 04:36:00,43.9,41.0,29.92,ESE,115,1.0,3.0,90,0.07,,,0.17,weatherlink.com 1.10,2013-04-09 08:36:00,
2013-04-09 04:51:00,44.0,42.0,29.92,ESE,108,2.0,4.0,91,0.05,,,0.18,weatherlink.com 1.10,2013-04-09 08:51:00,
2013-04-09 05:06:00,44.0,42.0,29.92,SSW,198,1.0,4.0,91,0.05,,,0.18,weatherlink.com 1.10,2013-04-09 09:06:00,
2013-04-09 05:21:00,44.0,42.0,29.91,WSW,252,1.0,5.0,91,0.03,,,0.18,weatherlink.com 1.10,2013-04-09 09:21:00,
2013-04-09 05:36:00,43.6,41.0,29.91,West,279,0.0,2.0,91,0.01,,,0.18,weatherlink.com 1.10,2013-04-09 09:36:00,
2013-04-09 05:51:00,43.3,41.0,29.91,SE,134,1.0,4.0,92,0.00,,,0.18,weatherlink.com 1.10,2013-04-09 09:51:00,
2013-04-09 06:07:00,43.3,41.0,29.91,NW,313,2.0,4.0,92,0.00,,,0.18,weatherlink.com 1.10,2013-04-09 10:07:00,
2013-04-09 06:51:00,43.8,42.0,29.91,East,89,4.0,7.0,92,0.00,,,0.18,weatherlink.com 1.10,2013-04-09 10:51:00,
2013-04-09 07:06:00,43.8,41.0,29.91,ESE,118,2.0,8.0,91,0.00,,,0.18,weatherlink.com 1.10,2013-04-09 11:06:00,
2013-04-09 07:21:00,43.9,42.0,29.91,East,101,1.0,4.0,91,0.00,,,0.18,weatherlink.com 1.10,2013-04-09 11:21:00,
2013-04-09 07:36:00,44.7,42.0,29.92,West,281,1.0,5.0,91,0.00,,,0.18,weatherlink.com 1.10,2013-04-09 11:36:00,
2013-04-09 07:51:00,45.2,43.0,29.91,West,262,1.0,4.0,91,0.00,,,0.18,weatherlink.com 1.10,2013-04-09 11:51:00,
2013-04-09 08:07:00,45.3,43.0,29.91,SW,219,2.0,5.0,90,0.00,,,0.18,weatherlink.com 1.10,2013-04-09 12:07:00,
2013-04-09 08:21:00,45.1,42.0,29.91,West,273,1.0,3.0,90,0.00,,,0.18,weatherlink.com 1.10,2013-04-09 12:21:00,
2013-04-09 08:36:00,45.1,43.0,29.90,SW,222,0.0,4.0,91,0.00,,,0.18,weatherlink.com 1.10,2013-04-09 12:36:00,
2013-04-09 08:52:00,45.3,43.0,29.91,NW,313,1.0,3.0,91,0.00,,,0.18,weatherlink.com 1.10,2013-04-09 12:52:00,
2013-04-09 09:06:00,45.8,43.0,29.90,WSW,243,0.0,1.0,91,0.00,,,0.18,weatherlink.com 1.10,2013-04-09 13:06:00,
2013-04-09 09:21:00,46.1,44.0,29.91,North,354,1.0,1.0,91,0.00,,,0.18,weatherlink.com 1.10,2013-04-09 13:21:00,
2013-04-09 09:37:00,46.3,44.0,29.91,SW,236,0.0,1.0,91,0.00,,,0.18,weatherlink.com 1.10,2013-04-09 13:37:00,
2013-04-09 09:52:00,46.4,44.0,29.91,NW,307,0.0,1.0,91,0.00,,,0.18,weatherlink.com 1.10,2013-04-09 13:52:00,
2013-04-09 10:07:00,46.9,44.0,29.91,SSW,205,0.0,2.0,90,0.00,,,0.18,weatherlink.com 1.10,2013-04-09 14:07:00,
2013-04-09 10:22:00,47.3,44.0,29.92,NNW,342,0.0,2.0,89,0.00,,,0.18,weatherlink.com 1.10,2013-04-09 14:22:00,
2013-04-09 10:37:00,48.4,45.0,29.92,SW,224,0.0,2.0,89,0.00,,,0.18,weatherlink.com 1.10,2013-04-09 14:37:00,
2013-04-09 10:52:00,49.7,46.0,29.91,West,262,1.0,2.0,88,0.00,,,0.18,weatherlink.com 1.10,2013-04-09 14:52:00,
2013-04-09 11:07:00,50.9,47.0,29.92,ENE,67,2.0,3.0,85,0.00,,,0.18,weatherlink.com 1.10,2013-04-09 15:07:00,
2013-04-09 11:22:00,50.8,46.0,29.94,East,82,1.0,3.0,84,0.00,,,0.18,weatherlink.com 1.10,2013-04-09 15:22:00,
2013-04-09 11:37:00,51.1,46.0,29.94,South,191,0.0,1.0,84,0.00,,,0.18,weatherlink.com 1.10,2013-04-09 15:37:00,
2013-04-09 11:52:00,51.2,47.0,29.94,ENE,62,1.0,3.0,84,0.00,,,0.18,weatherlink.com 1.10,2013-04-09 15:52:00,
2013-04-09 12:07:00,53.0,46.0,29.93,East,94,3.0,9.0,78,0.00,,,0.18,weatherlink.com 1.10,2013-04-09 16:07:00,
2013-04-09 12:22:00,53.4,46.0,29.94,NW,321,1.0,4.0,76,0.00,,,0.18,weatherlink.com 1.10,2013-04-09 16:22:00,
2013-04-09 12:37:00,53.2,46.0,29.97,North,8,1.0,10.0,76,0.00,,,0.18,weatherlink.com 1.10,2013-04-09 16:37:00,
2013-04-09 12:52:00,53.2,45.0,29.97,NNW,328,2.0,7.0,75,0.00,,,0.18,weatherlink.com 1.10,2013-04-09 16:52:00,
2013-04-09 13:07:00,53.0,45.0,29.98,NW,320,2.0,9.0,75,0.00,,,0.18,weatherlink.com 1.10,2013-04-09 17:07:00,
2013-04-09 13:22:00,53.0,45.0,29.98,North,350,3.0,7.0,75,0.00,,,0.18,weatherlink.com 1.10,2013-04-09 17:22:00,
2013-04-09 13:37:00,54.0,46.0,29.98,NNW,335,3.0,11.0,73,0.00,,,0.18,weatherlink.com 1.10,2013-04-09 17:37:00,
2013-04-09 13:52:00,54.7,45.0,29.98,ENE,57,3.0,10.0,70,0.00,,,0.18,weatherlink.com 1.10,2013-04-09 17:52:00,
2013-04-09 14:07:00,54.9,45.0,29.98,NNW,341,1.0,9.0,70,0.00,,,0.18,weatherlink.com 1.10,2013-04-09 18:07:00,
2013-04-09 14:22:00,56.2,43.0,29.98,West,264,3.0,12.0,62,0.00,,,0.18,weatherlink.com 1.10,2013-04-09 18:22:00,
2013-04-09 14:37:00,57.0,43.0,29.98,SW,226,5.0,14.0,60,0.00,,,0.18,weatherlink.com 1.10,2013-04-09 18:37:00,
2013-04-09 14:52:00,58.2,44.0,29.97,NW,318,1.0,11.0,59,0.00,,,0.18,weatherlink.com 1.10,2013-04-09 18:52:00,
2013-04-09 15:07:00,58.6,42.0,29.98,NNW,328,3.0,15.0,55,0.00,,,0.18,weatherlink.com 1.10,2013-04-09 19:07:00,
2013-04-09 15:22:00,59.1,42.0,29.98,WSW,252,2.0,10.0,54,0.00,,,0.18,weatherlink.com 1.10,2013-04-09 19:22:00,
2013-04-09 15:37:00,59.6,41.0,29.97,North,1,4.0,9.0,51,0.00,,,0.18,weatherlink.com 1.10,2013-04-09 19:37:00,
2013-04-09 15:52:00,59.3,41.0,29.97,NW,325,2.0,12.0,51,0.00,,,0.18,weatherlink.com 1.10,2013-04-09 19:52:00,
2013-04-09 16:07:00,60.0,42.0,29.96,North,9,2.0,9.0,52,0.00,,,0.18,weatherlink.com 1.10,2013-04-09 20:07:00,
2013-04-09 16:22:00,60.1,41.0,29.96,NNW,337,3.0,6.0,50,0.00,,,0.18,weatherlink.com 1.10,2013-04-09 20:22:00,
2013-04-09 16:37:00,59.7,42.0,29.96,NNE,31,3.0,6.0,52,0.00,,,0.18,weatherlink.com 1.10,2013-04-09 20:37:00,
2013-04-09 16:52:00,58.7,41.0,29.96,WSW,258,1.0,6.0,52,0.00,,,0.18,weatherlink.com 1.10,2013-04-09 20:52:00,
2013-04-09 17:07:00,59.3,41.0,29.97,NNW,333,2.0,5.0,51,0.00,,,0.18,weatherlink.com 1.10,2013-04-09 21:07:00,
2013-04-09 17:22:00,57.8,41.0,29.98,North,9,3.0,5.0,54,0.00,,,0.18,weatherlink.com 1.10,2013-04-09 21:22:00,
2013-04-09 17:37:00,56.8,41.0,29.99,NNW,337,2.0,7.0,55,0.00,,,0.18,weatherlink.com 1.10,2013-04-09 21:37:00,
2013-04-09 17:52:00,56.3,41.0,29.99,North,9,2.0,6.0,57,0.00,,,0.18,weatherlink.com 1.10,2013-04-09 21:52:00,
2013-04-09 18:07:00,55.4,41.0,29.99,ENE,63,1.0,6.0,59,0.00,,,0.18,weatherlink.com 1.10,2013-04-09 22:07:00,
2013-04-09 18:22:00,54.4,41.0,29.99,NNE,28,3.0,6.0,60,0.00,,,0.18,weatherlink.com 1.10,2013-04-09 22:22:00,
2013-04-09 18:38:00,53.5,40.0,30.00,NE,41,4.0,7.0,61,0.00,,,0.18,weatherlink.com 1.10,2013-04-09 22:38:00,
2013-04-09 18:52:00,52.7,40.0,30.00,North,359,1.0,6.0,63,0.00,,,0.18,weatherlink.com 1.10,2013-04-09 22:52:00,
2013-04-09 19:08:00,51.7,40.0,30.00,North,5,3.0,4.0,65,0.00,,,0.18,weatherlink.com 1.10,2013-04-09 23:08:00,
2013-04-09 19:22:00,50.5,40.0,30.01,NNW,341,2.0,6.0,67,0.00,,,0.18,weatherlink.com 1.10,2013-04-09 23:22:00,
2013-04-09 19:37:00,49.6,40.0,30.01,North,358,2.0,3.0,70,0.00,,,0.18,weatherlink.com 1.10,2013-04-09 23:37:00,
2013-04-09 19:53:00,48.7,40.0,30.02,NW,304,2.0,2.0,72,0.00,,,0.18,weatherlink.com 1.10,2013-04-09 23:53:00,
2013-04-09 20:08:00,48.1,40.0,30.03,NW,321,1.0,3.0,73,0.00,,,0.18,weatherlink.com 1.10,2013-04-10 00:08:00,
2013-04-09 20:23:00,47.8,40.0,30.04,NNW,335,1.0,6.0,74,0.00,,,0.18,weatherlink.com 1.10,2013-04-10 00:23:00,
2013-04-09 20:38:00,47.5,40.0,30.05,NNW,330,1.0,3.0,74,0.00,,,0.18,weatherlink.com 1.10,2013-04-10 00:38:00,
2013-04-09 20:53:00,47.1,40.0,30.05,NW,318,2.0,3.0,75,0.00,,,0.18,weatherlink.com 1.10,2013-04-10 00:53:00,
2013-04-09 21:08:00,46.7,39.0,30.05,NNE,13,2.0,2.0,75,0.00,,,0.18,weatherlink.com 1.10,2013-04-10 01:08:00,
2013-04-09 21:23:00,46.3,39.0,30.05,NNE,25,2.0,4.0,76,0.00,,,0.18,weatherlink.com 1.10,2013-04-10 01:23:00,
2013-04-09 21:38:00,46.1,39.0,30.06,NNE,18,4.0,6.0,76,0.00,,,0.18,weatherlink.com 1.10,2013-04-10 01:38:00,
2013-04-09 21:53:00,45.8,39.0,30.06,North,6,1.0,5.0,76,0.00,,,0.18,weatherlink.com 1.10,2013-04-10 01:53:00,
2013-04-09 22:08:00,45.5,38.0,30.06,NE,43,2.0,4.0,76,0.00,,,0.18,weatherlink.com 1.10,2013-04-10 02:08:00,
2013-04-09 22:23:00,45.2,39.0,30.06,NE,34,0.0,2.0,78,0.00,,,0.18,weatherlink.com 1.10,2013-04-10 02:23:00,
2013-04-09 22:38:00,44.7,39.0,30.05,NNW,345,0.0,2.0,80,0.00,,,0.18,weatherlink.com 1.10,2013-04-10 02:38:00,
2013-04-09 22:53:00,44.1,39.0,30.04,NNW,345,0.0,1.0,81,0.00,,,0.18,weatherlink.com 1.10,2013-04-10 02:53:00,
2013-04-09 23:08:00,43.7,39.0,30.02,NNW,345,0.0,1.0,83,0.00,,,0.18,weatherlink.com 1.10,2013-04-10 03:08:00,
2013-04-09 23:23:00,43.2,39.0,30.01,NNW,328,0.0,2.0,86,0.01,,,0.19,weatherlink.com 1.10,2013-04-10 03:23:00,
2013-04-09 23:38:00,42.7,39.0,30.01,NNW,340,1.0,2.0,88,0.01,,,0.19,weatherlink.com 1.10,2013-04-10 03:38:00,
2013-04-09 23:53:00,42.6,40.0,30.01,NNW,338,0.0,1.0,89,0.01,,,0.19,weatherlink.com 1.10,2013-04-10 03:53:00,